Location: Bern�tre
(50.1974°N, 2.0915°E)
Time: 06:14:28
(UTC+00:00)

HJ-1C - Pass Details

Date: 18 September 2020
Orbit: 432 x 443 km, 97.1° (Epoch: 22 October)

Event Time Altitude Azimuth Distance (km) Brightness Sun altitude
Rises 18:26:14 0° 155° (SSE) 2,399 6.8 -5.4°
Reaches altitude 10° 18:28:16 10° 150° (SSE) 1,536 5.7 -5.7°
Maximum altitude 18:31:28 53° 73° (ENE) 546 3.5 -6.2°
Drops below altitude 10° 18:34:43 10° 356° (N) 1,553 6.3 -6.7°
Sets 18:36:46 0° 352° (N) 2,428 7.4 -7.0°
